Location: Newark
(3.0500°N, 36.0167°E)
Time: 10:34:07
(UTC+00:00)

Vanguard 3 - Visible Passes

Search period start: 21 August 2019 00:00
Search period end: 31 August 2019 00:00
Orbit: 508 x 3263 km, 33.3° (Epoch: 20 August)

Date Brightness Start Highest point End Pass type
(mag) Time Alt. Az. Time Alt. Az. Time Alt. Az.
21 Aug 9.9 01:53:48 22° SSW 01:55:37 23° SSW 02:06:39 10° SSE visible
22 Aug 10.1 00:44:19 23° SSE 00:44:19 23° SSE 00:50:14 10° SSE visible
22 Aug 10.4 02:50:41 10° SW 02:57:10 15° S 03:05:06 10° SSE visible
23 Aug 10.2 01:39:20 18° SSW 01:39:49 18° SSW 01:48:20 10° SSE visible
24 Aug 10.5 00:29:44 15° SSE 00:29:44 15° SSE 00:32:19 10° SSE visible
24 Aug 10.5 02:37:26 10° SSW 02:41:30 12° S 02:46:09 10° S visible
25 Aug 10.4 01:24:38 13° S 01:24:38 13° S 01:29:38 10° SSE visible
